Time,TemperatureF,DewpointF,PressureIn,WindDirection,WindDirectionDegrees,WindSpeedMPH,WindSpeedGustMPH,Humidity,HourlyPrecipIn,Conditions,Clouds,dailyrainin,SoftwareType,DateUTC
2013-05-18 00:03:00,66.0,64.0,-100.00,South,175,0.0,2.0,95,1.10,,,-99.99,,2013-05-18 04:03:00,
2013-05-18 00:12:00,66.0,65.0,-100.00,SSW,195,0.0,2.0,95,0.55,,,-99.99,,2013-05-18 04:12:00,
2013-05-18 00:23:00,66.0,65.0,-100.00,North,5,1.0,2.0,95,0.00,,,-99.99,,2013-05-18 04:23:00,
2013-05-18 00:33:00,66.0,65.0,-100.00,WSW,255,0.0,1.0,95,0.00,,,-99.99,,2013-05-18 04:33:00,
2013-05-18 00:42:00,66.0,64.0,-100.00,WNW,290,1.0,2.0,96,0.00,,,-99.99,,2013-05-18 04:42:00,
2013-05-18 00:52:00,66.0,64.0,-100.00,West,260,1.0,2.0,96,0.00,,,-99.99,,2013-05-18 04:52:00,
2013-05-18 01:02:00,66.0,64.0,-100.00,West,260,1.0,2.0,96,0.00,,,-99.99,,2013-05-18 05:02:00,
2013-05-18 01:13:00,66.0,64.0,-100.00,WSW,240,0.0,3.0,95,0.00,,,-99.99,,2013-05-18 05:13:00,
2013-05-18 01:22:00,66.0,64.0,-100.00,NW,305,1.0,2.0,95,0.00,,,-99.99,,2013-05-18 05:22:00,
2013-05-18 01:32:00,66.0,64.0,-100.00,West,275,0.0,2.0,95,0.00,,,-99.99,,2013-05-18 05:32:00,
2013-05-18 01:42:00,66.0,64.0,-100.00,West,265,2.0,2.0,95,0.00,,,-99.99,,2013-05-18 05:42:00,
2013-05-18 01:52:00,65.0,64.0,-100.00,West,260,1.0,2.0,95,0.00,,,-99.99,,2013-05-18 05:52:00,
2013-05-18 02:02:00,65.0,64.0,-100.00,WSW,255,1.0,2.0,95,0.00,,,-99.99,,2013-05-18 06:02:00,
2013-05-18 02:11:00,65.0,64.0,-100.00,NW,320,0.0,1.0,95,0.00,,,-99.99,,2013-05-18 06:11:00,
2013-05-18 02:22:00,65.0,64.0,-100.00,SW,215,0.0,1.0,95,0.00,,,-99.99,,2013-05-18 06:22:00,
2013-05-18 02:32:00,65.0,64.0,-100.00,SE,135,1.0,2.0,95,0.00,,,-99.99,,2013-05-18 06:32:00,
2013-05-18 02:42:00,65.0,64.0,-100.00,East,90,1.0,2.0,96,0.00,,,-99.99,,2013-05-18 06:42:00,
2013-05-18 02:52:00,65.0,64.0,-100.00,ENE,65,1.0,2.0,96,0.00,,,-99.99,,2013-05-18 06:52:00,
2013-05-18 03:01:00,65.0,64.0,-100.00,ESE,115,1.0,2.0,96,0.00,,,-99.99,,2013-05-18 07:01:00,
2013-05-18 03:12:00,65.0,64.0,-100.00,SSE,160,1.0,2.0,96,0.00,,,-99.99,,2013-05-18 07:12:00,
2013-05-18 03:21:00,65.0,64.0,-100.00,SSE,150,0.0,2.0,96,0.00,,,-99.99,,2013-05-18 07:21:00,
2013-05-18 03:32:00,65.0,64.0,-100.00,WSW,255,0.0,1.0,95,0.00,,,-99.99,,2013-05-18 07:32:00,
2013-05-18 03:42:00,65.0,63.0,-100.00,SW,215,0.0,2.0,95,0.00,,,-99.99,,2013-05-18 07:42:00,
2013-05-18 03:52:00,64.0,63.0,-100.00,South,175,1.0,2.0,95,0.00,,,-99.99,,2013-05-18 07:52:00,
2013-05-18 04:01:00,64.0,63.0,-100.00,SSE,150,0.0,1.0,95,0.00,,,-99.99,,2013-05-18 08:01:00,
2013-05-18 04:11:00,64.0,63.0,-100.00,ESE,120,1.0,2.0,95,0.00,,,-99.99,,2013-05-18 08:11:00,
2013-05-18 04:21:00,65.0,64.0,-100.00,ESE,115,0.0,1.0,96,0.00,,,-99.99,,2013-05-18 08:21:00,
2013-05-18 04:32:00,65.0,63.0,-100.00,East,95,1.0,2.0,96,0.00,,,-99.99,,2013-05-18 08:32:00,
2013-05-18 04:42:00,65.0,63.0,-100.00,SE,130,0.0,2.0,95,0.00,,,-99.99,,2013-05-18 08:42:00,
2013-05-18 04:52:00,65.0,64.0,-100.00,ENE,70,0.0,1.0,96,1.10,,,-99.99,,2013-05-18 08:52:00,
2013-05-18 05:02:00,64.0,63.0,-100.00,SSW,195,1.0,1.0,96,1.10,,,-99.99,,2013-05-18 09:02:00,
2013-05-18 05:11:00,64.0,63.0,-100.00,WSW,255,1.0,2.0,96,0.00,,,-99.99,,2013-05-18 09:11:00,
2013-05-18 05:22:00,64.0,63.0,-100.00,WSW,250,2.0,4.0,96,0.00,,,-99.99,,2013-05-18 09:22:00,
2013-05-18 05:33:00,65.0,64.0,-100.00,WSW,250,2.0,4.0,96,1.10,,,-99.99,,2013-05-18 09:33:00,
2013-05-18 05:43:00,65.0,64.0,-100.00,NE,35,0.0,2.0,96,1.10,,,-99.99,,2013-05-18 09:43:00,
2013-05-18 05:53:00,65.0,64.0,-100.00,SE,140,1.0,2.0,97,0.55,,,-99.99,,2013-05-18 09:53:00,
2013-05-18 06:03:00,65.0,64.0,-100.00,SSW,200,0.0,4.0,97,0.55,,,-99.99,,2013-05-18 10:03:00,
2013-05-18 06:12:00,64.0,64.0,-100.00,South,190,0.0,4.0,97,0.00,,,-99.99,,2013-05-18 10:12:00,
2013-05-18 06:23:00,65.0,64.0,-100.00,North,355,0.0,1.0,97,0.00,,,-99.99,,2013-05-18 10:23:00,
2013-05-18 06:33:00,64.0,64.0,-100.00,South,170,0.0,2.0,97,0.55,,,-99.99,,2013-05-18 10:33:00,
2013-05-18 06:42:00,64.0,64.0,-100.00,East,90,1.0,3.0,97,1.69,,,-99.99,,2013-05-18 10:42:00,
2013-05-18 06:52:00,65.0,64.0,-100.00,ENE,70,1.0,4.0,97,0.00,,,-99.99,,2013-05-18 10:52:00,
2013-05-18 07:03:00,65.0,64.0,-100.00,South,185,1.0,4.0,97,0.00,,,-99.99,,2013-05-18 11:03:00,
2013-05-18 07:12:00,65.0,64.0,-100.00,South,170,3.0,4.0,97,0.00,,,-99.99,,2013-05-18 11:12:00,
2013-05-18 07:22:00,65.0,64.0,-100.00,South,175,1.0,3.0,96,0.00,,,-99.99,,2013-05-18 11:22:00,
2013-05-18 07:33:00,65.0,64.0,-100.00,SSE,160,1.0,4.0,96,0.00,,,-99.99,,2013-05-18 11:33:00,
2013-05-18 07:42:00,65.0,64.0,-100.00,North,0,1.0,4.0,96,0.00,,,-99.99,,2013-05-18 11:42:00,
2013-05-18 07:52:00,65.0,64.0,-100.00,East,85,1.0,3.0,96,0.00,,,-99.99,,2013-05-18 11:52:00,
2013-05-18 08:02:00,65.0,64.0,-100.00,SSW,195,1.0,4.0,95,0.00,,,-99.99,,2013-05-18 12:02:00,
2013-05-18 08:12:00,65.0,64.0,-100.00,SE,145,1.0,2.0,95,0.00,,,-99.99,,2013-05-18 12:12:00,
2013-05-18 08:23:00,66.0,64.0,-100.00,North,5,1.0,3.0,95,0.00,,,-99.99,,2013-05-18 12:23:00,
2013-05-18 08:33:00,66.0,64.0,-100.00,SSE,150,1.0,3.0,94,0.00,,,-99.99,,2013-05-18 12:33:00,
2013-05-18 08:42:00,66.0,64.0,-100.00,East,85,1.0,4.0,94,0.00,,,-99.99,,2013-05-18 12:42:00,
2013-05-18 08:52:00,66.0,64.0,-100.00,NW,305,0.0,3.0,94,0.00,,,-99.99,,2013-05-18 12:52:00,
2013-05-18 09:01:00,66.0,64.0,-100.00,SE,130,0.0,3.0,94,0.00,,,-99.99,,2013-05-18 13:01:00,
2013-05-18 09:11:00,66.0,64.0,-100.00,NE,40,1.0,3.0,94,0.00,,,-99.99,,2013-05-18 13:11:00,
2013-05-18 09:21:00,66.0,65.0,-100.00,North,0,1.0,3.0,94,0.00,,,-99.99,,2013-05-18 13:21:00,
2013-05-18 09:33:00,66.0,64.0,-100.00,WNW,285,1.0,3.0,94,0.00,,,-99.99,,2013-05-18 13:33:00,
2013-05-18 09:43:00,67.0,65.0,-100.00,East,100,2.0,4.0,93,0.00,,,-99.99,,2013-05-18 13:43:00,
2013-05-18 09:52:00,67.0,65.0,-100.00,NE,50,1.0,4.0,93,0.00,,,-99.99,,2013-05-18 13:52:00,
2013-05-18 10:03:00,67.0,65.0,-100.00,NE,45,1.0,4.0,91,0.00,,,-99.99,,2013-05-18 14:03:00,
2013-05-18 10:12:00,67.0,64.0,-100.00,ESE,105,2.0,5.0,90,0.00,,,-99.99,,2013-05-18 14:12:00,
2013-05-18 10:22:00,67.0,64.0,-100.00,ESE,115,2.0,4.0,89,0.00,,,-99.99,,2013-05-18 14:22:00,
2013-05-18 10:33:00,68.0,64.0,-100.00,East,95,1.0,5.0,89,0.00,,,-99.99,,2013-05-18 14:33:00,
2013-05-18 10:42:00,68.0,64.0,-100.00,ENE,75,2.0,4.0,88,0.00,,,-99.99,,2013-05-18 14:42:00,
2013-05-18 10:54:00,68.0,65.0,-100.00,ENE,60,2.0,5.0,87,0.00,,,-99.99,,2013-05-18 14:54:00,
2013-05-18 11:03:00,69.0,65.0,-100.00,ENE,75,2.0,4.0,87,0.00,,,-99.99,,2013-05-18 15:03:00,
2013-05-18 11:13:00,70.0,65.0,-100.00,NNE,30,1.0,4.0,85,0.00,,,-99.99,,2013-05-18 15:13:00,
2013-05-18 11:23:00,69.0,65.0,-100.00,ENE,75,1.0,5.0,86,0.00,,,-99.99,,2013-05-18 15:23:00,
2013-05-18 11:33:00,69.0,65.0,-100.00,North,0,1.0,3.0,87,0.00,,,-99.99,,2013-05-18 15:33:00,
2013-05-18 11:43:00,69.0,65.0,-100.00,NE,40,1.0,3.0,87,1.10,,,-99.99,,2013-05-18 15:43:00,
2013-05-18 11:53:00,70.0,65.0,-100.00,North,350,3.0,5.0,85,0.00,,,-99.99,,2013-05-18 15:53:00,
2013-05-18 12:03:00,69.0,65.0,-100.00,North,10,1.0,5.0,86,0.00,,,-99.99,,2013-05-18 16:03:00,
2013-05-18 12:13:00,70.0,65.0,-100.00,SSE,155,1.0,4.0,84,0.00,,,-99.99,,2013-05-18 16:13:00,
2013-05-18 12:22:00,70.0,65.0,-100.00,SE,145,2.0,4.0,84,0.00,,,-99.99,,2013-05-18 16:22:00,
2013-05-18 12:33:00,70.0,65.0,-100.00,SE,145,2.0,4.0,84,0.00,,,-99.99,,2013-05-18 16:33:00,
2013-05-18 12:42:00,74.0,66.0,-100.00,West,260,1.0,7.0,76,0.00,,,-99.99,,2013-05-18 16:42:00,
2013-05-18 12:52:00,74.0,65.0,-100.00,NW,305,4.0,8.0,74,0.00,,,-99.99,,2013-05-18 16:52:00,
2013-05-18 13:02:00,74.0,64.0,-100.00,West,270,4.0,7.0,70,0.00,,,-99.99,,2013-05-18 17:02:00,
2013-05-18 13:12:00,75.0,64.0,-100.00,WSW,245,4.0,11.0,68,0.00,,,-99.99,,2013-05-18 17:12:00,
2013-05-18 13:22:00,76.0,65.0,-100.00,WNW,290,2.0,6.0,68,0.00,,,-99.99,,2013-05-18 17:22:00,
2013-05-18 13:32:00,76.0,66.0,-100.00,West,260,2.0,6.0,69,0.00,,,-99.99,,2013-05-18 17:32:00,
2013-05-18 13:42:00,77.0,63.0,-100.00,WSW,255,5.0,9.0,61,0.00,,,-99.99,,2013-05-18 17:42:00,
2013-05-18 13:52:00,76.0,62.0,-100.00,West,275,7.0,10.0,61,0.00,,,-99.99,,2013-05-18 17:52:00,
2013-05-18 14:01:00,78.0,64.0,-100.00,West,265,6.0,11.0,62,0.00,,,-99.99,,2013-05-18 18:01:00,
2013-05-18 14:12:00,78.0,64.0,-100.00,WSW,250,4.0,9.0,61,0.00,,,-99.99,,2013-05-18 18:12:00,
2013-05-18 14:21:00,78.0,65.0,-100.00,WNW,300,6.0,9.0,63,0.00,,,-99.99,,2013-05-18 18:21:00,
2013-05-18 14:32:00,77.0,64.0,-100.00,NW,315,4.0,7.0,62,0.00,,,-99.99,,2013-05-18 18:32:00,
2013-05-18 14:42:00,78.0,64.0,-100.00,WNW,290,2.0,6.0,62,0.00,,,-99.99,,2013-05-18 18:42:00,
2013-05-18 14:52:00,79.0,65.0,-100.00,WNW,295,2.0,6.0,62,0.00,,,-99.99,,2013-05-18 18:52:00,
2013-05-18 15:02:00,78.0,63.0,-100.00,WNW,290,2.0,4.0,60,0.00,,,-99.99,,2013-05-18 19:02:00,
2013-05-18 15:12:00,78.0,65.0,-100.00,NNW,340,2.0,4.0,63,0.00,,,-99.99,,2013-05-18 19:12:00,
2013-05-18 15:22:00,78.0,64.0,-100.00,NNW,340,3.0,5.0,63,0.00,,,-99.99,,2013-05-18 19:22:00,
2013-05-18 15:32:00,75.0,65.0,-100.00,WNW,300,9.0,14.0,69,0.00,,,-99.99,,2013-05-18 19:32:00,
2013-05-18 15:42:00,72.0,64.0,-100.00,NW,315,6.0,16.0,75,0.00,,,-99.99,,2013-05-18 19:42:00,
2013-05-18 15:52:00,69.0,65.0,-100.00,NW,325,4.0,11.0,88,26.61,,,-99.99,,2013-05-18 19:52:00,
2013-05-18 16:02:00,68.0,66.0,-100.00,South,175,1.0,6.0,92,1.69,,,-99.99,,2013-05-18 20:02:00,
2013-05-18 16:11:00,69.0,66.0,-100.00,South,170,2.0,4.0,91,0.55,,,-99.99,,2013-05-18 20:11:00,
2013-05-18 16:22:00,69.0,66.0,-100.00,East,100,4.0,6.0,92,0.00,,,-99.99,,2013-05-18 20:22:00,
2013-05-18 16:32:00,69.0,67.0,-100.00,East,80,2.0,6.0,91,0.00,,,-99.99,,2013-05-18 20:32:00,
2013-05-18 16:42:00,70.0,67.0,-100.00,ENE,60,3.0,5.0,91,0.55,,,-99.99,,2013-05-18 20:42:00,
2013-05-18 16:52:00,70.0,67.0,-100.00,ESE,105,2.0,6.0,89,0.00,,,-99.99,,2013-05-18 20:52:00,
2013-05-18 17:01:00,70.0,67.0,-100.00,SE,140,2.0,6.0,89,0.00,,,-99.99,,2013-05-18 21:01:00,
2013-05-18 17:12:00,71.0,67.0,-100.00,ESE,105,2.0,6.0,89,0.00,,,-99.99,,2013-05-18 21:12:00,
2013-05-18 17:21:00,71.0,68.0,-100.00,SE,125,2.0,6.0,89,0.00,,,-99.99,,2013-05-18 21:21:00,
2013-05-18 17:33:00,71.0,67.0,-100.00,East,100,1.0,6.0,86,0.00,,,-99.99,,2013-05-18 21:33:00,
2013-05-18 17:43:00,72.0,68.0,-100.00,East,95,1.0,4.0,86,0.00,,,-99.99,,2013-05-18 21:43:00,
2013-05-18 17:53:00,73.0,68.0,-100.00,ENE,65,2.0,4.0,84,0.00,,,-99.99,,2013-05-18 21:53:00,
2013-05-18 18:03:00,74.0,68.0,-100.00,NE,40,2.0,6.0,80,0.00,,,-99.99,,2013-05-18 22:03:00,
2013-05-18 18:12:00,74.0,68.0,-100.00,SE,125,2.0,5.0,81,0.00,,,-99.99,,2013-05-18 22:12:00,
2013-05-18 18:23:00,73.0,67.0,-100.00,ESE,120,2.0,6.0,82,0.00,,,-99.99,,2013-05-18 22:23:00,
2013-05-18 18:33:00,74.0,68.0,-100.00,SE,135,3.0,5.0,81,0.00,,,-99.99,,2013-05-18 22:33:00,
2013-05-18 18:42:00,74.0,67.0,-100.00,ESE,115,4.0,6.0,76,0.00,,,-99.99,,2013-05-18 22:42:00,
2013-05-18 18:52:00,76.0,66.0,-100.00,East,100,3.0,6.0,73,0.00,,,-99.99,,2013-05-18 22:52:00,
2013-05-18 19:02:00,76.0,67.0,-100.00,ESE,120,1.0,6.0,73,0.00,,,-99.99,,2013-05-18 23:02:00,
2013-05-18 19:12:00,76.0,66.0,-100.00,SSE,155,2.0,4.0,70,0.00,,,-99.99,,2013-05-18 23:12:00,
2013-05-18 19:22:00,77.0,67.0,-100.00,SE,145,1.0,3.0,72,0.00,,,-99.99,,2013-05-18 23:22:00,
2013-05-18 19:32:00,76.0,67.0,-100.00,WSW,240,6.0,11.0,73,0.00,,,-99.99,,2013-05-18 23:32:00,
2013-05-18 19:41:00,76.0,67.0,-100.00,WSW,240,6.0,11.0,73,0.00,,,-99.99,,2013-05-18 23:41:00,
2013-05-18 19:52:00,74.0,65.0,-100.00,SW,220,6.0,9.0,74,0.00,,,-99.99,,2013-05-18 23:52:00,
2013-05-18 20:01:00,73.0,65.0,-100.00,WSW,250,6.0,9.0,76,0.00,,,-99.99,,2013-05-19 00:01:00,
2013-05-18 20:12:00,72.0,65.0,-100.00,WSW,255,5.0,9.0,80,0.00,,,-99.99,,2013-05-19 00:12:00,
2013-05-18 20:22:00,71.0,66.0,-100.00,WNW,295,3.0,6.0,82,0.00,,,-99.99,,2013-05-19 00:22:00,
2013-05-18 20:32:00,71.0,67.0,-100.00,WSW,245,1.0,3.0,86,0.55,,,-99.99,,2013-05-19 00:32:00,
2013-05-18 20:41:00,71.0,68.0,-100.00,SE,135,1.0,2.0,88,0.55,,,-99.99,,2013-05-19 00:41:00,
2013-05-18 20:51:00,71.0,67.0,-100.00,South,180,1.0,3.0,90,0.00,,,-99.99,,2013-05-19 00:51:00,
2013-05-18 21:01:00,70.0,67.0,-100.00,West,280,1.0,3.0,88,0.00,,,-99.99,,2013-05-19 01:01:00,
2013-05-18 21:11:00,71.0,68.0,-100.00,NNW,340,1.0,3.0,91,0.00,,,-99.99,,2013-05-19 01:11:00,
2013-05-18 21:21:00,70.0,67.0,-100.00,NNW,330,1.0,3.0,92,0.00,,,-99.99,,2013-05-19 01:21:00,
2013-05-18 21:32:00,69.0,67.0,-100.00,West,265,0.0,3.0,93,0.00,,,-99.99,,2013-05-19 01:32:00,
2013-05-18 21:42:00,69.0,67.0,-100.00,SSE,165,1.0,4.0,92,0.00,,,-99.99,,2013-05-19 01:42:00,
2013-05-18 21:52:00,69.0,67.0,-100.00,South,185,1.0,2.0,93,0.00,,,-99.99,,2013-05-19 01:52:00,
2013-05-18 22:02:00,69.0,67.0,-100.00,North,0,1.0,3.0,94,0.00,,,-99.99,,2013-05-19 02:02:00,
2013-05-18 22:11:00,69.0,67.0,-100.00,NW,320,1.0,3.0,94,0.00,,,-99.99,,2013-05-19 02:11:00,
2013-05-18 22:22:00,68.0,67.0,-100.00,WNW,295,1.0,2.0,95,0.00,,,-99.99,,2013-05-19 02:22:00,
2013-05-18 22:32:00,68.0,67.0,-100.00,North,0,1.0,2.0,95,0.00,,,-99.99,,2013-05-19 02:32:00,
2013-05-18 22:42:00,68.0,66.0,-100.00,ESE,105,1.0,2.0,94,0.00,,,-99.99,,2013-05-19 02:42:00,
2013-05-18 22:52:00,68.0,66.0,-100.00,WSW,240,1.0,2.0,95,0.00,,,-99.99,,2013-05-19 02:52:00,
2013-05-18 23:01:00,68.0,66.0,-100.00,NW,320,1.0,2.0,95,0.00,,,-99.99,,2013-05-19 03:01:00,
2013-05-18 23:11:00,67.0,66.0,-100.00,West,270,1.0,2.0,95,0.00,,,-99.99,,2013-05-19 03:11:00,
2013-05-18 23:22:00,67.0,66.0,-100.00,NNW,340,1.0,2.0,95,0.00,,,-99.99,,2013-05-19 03:22:00,
2013-05-18 23:33:00,67.0,66.0,-100.00,NNW,340,1.0,2.0,95,0.00,,,-99.99,,2013-05-19 03:33:00,
2013-05-18 23:42:00,67.0,65.0,-100.00,South,175,1.0,3.0,95,0.00,,,-99.99,,2013-05-19 03:42:00,
2013-05-18 23:53:00,67.0,65.0,-100.00,South,185,1.0,2.0,95,0.00,,,-99.99,,2013-05-19 03:53:00,